Location: Elma
(49.8670°N, 95.9170°W)
Time: 04:52:06
(UTC-05:00)

OTV 5 (USA 277) - Visible Passes

Search period start: 23 October 2019 00:00
Search period end: 02 November 2019 00:00
Orbit: 310 x 324 km, 54.5° (Epoch: 17 October)

Date Brightness Start Highest point End Pass type
(mag) Time Alt. Az. Time Alt. Az. Time Alt. Az.
28 Oct ? 19:41:53 10° S 19:42:19 12° SSE 19:42:19 12° SSE visible
29 Oct ? 19:55:24 10° SSW 19:56:47 22° S 19:56:47 22° S visible
30 Oct ? 20:09:36 10° SW 20:11:08 29° SW 20:11:08 29° SW visible
31 Oct ? 18:50:37 10° SSW 18:52:46 21° SE 18:54:30 13° E visible
31 Oct ? 20:24:10 10° WSW 20:25:23 23° W 20:25:23 23° W visible
01 Nov ? 19:04:32 10° SW 19:07:10 45° SE 19:08:40 21° E visible
01 Nov ? 20:38:56 10° W 20:39:33 15° W 20:39:33 15° W visible
